User: anonymous   Login
Location: Unspecified
(0.0000°N, 0.0000°E)
Time: 23:49:36
(UTC+00:00)
Language:

Transit 2A Rocket - Orbit

View from above orbital plane
View from above orbital plane
View from above satellite
View from above satellite

Ground track
Ground track

The orbit data is extracted from the following two-line orbital elements,

1 00047U 60007C   15087.48538247  .00000861  00000-0  21397-3 0  9996
2 00047 066.6660 215.2597 0236514 259.1919 098.2485 14.41554249860044
Epoch (UTC): 28 March 2015 11:38:57
Eccentricity: 0.0236514
inclination: 66.6660°
perigee height: 585 km
apogee height: 922 km
right ascension of ascending node: 215.2597°
argument of perigee: 259.1919°
revolutions per day: 14.41554249
mean anomaly at epoch: 98.2485°
orbit number at epoch: 86004

The dashed part of the orbit path shows where the satellite is in the earth's shadow,  

DLR